sat.trackr.live / text

‹ back to catalog

GEESAT-3 06

NORAD 61016 · 2024-159F

PAYLOAD ACTIVE UNKNOWN

§ Identity

Operator
Country
PRC
Launch date
2024-09-05
Launch site
TAISC
Launch vehicle
Mass (kg)
RCS (m²)

External: N2YO · Heavens-Above · Gunter

§ Orbital elements

Epoch: 2026-05-25T03:37:01.661088Z

Period
97.03 min
Inclination
49.9969°
Eccentricity
0.0016852
Mean motion
14.84150105 rev/d
Perigee alt
604.5 km
Apogee alt
628.0 km
Semi-major
6,994.4 km
B*
1.6935e-4
RAAN
190.1952°
Arg perigee
347.8248°
Mean anomaly
12.2281°
Rev number
9,334

§ Raw data

GEESAT-3 061 61016U 24159F   26145.15071367  .00001202  00000+0  16935-3 0  99942 61016  49.9969 190.1952 0016852 347.8248  12.2281 14.84150105 93341

JSON: /api/v1/satellites/61016 · /tle

For live sub-satellite position, see the globe view (requires WebGL).

§ Visibility from observer

Set your observer location to see the next 7 days of passes ≥ 10°. The values pass through the URL so the page stays shareable.

No JS? Fill the form by hand. The geolocation button needs JavaScript.